TimePDT,TemperatureF,Dew PointF,Humidity,Sea Level PressureIn,VisibilityMPH,Wind Direction,Wind SpeedMPH,Gust SpeedMPH,PrecipitationIn,Events,Conditions,WindDirDegrees,DateUTC
12:53 AM,48.9,46.9,93,30.35,9.0,Calm,Calm,-,N/A,,Overcast,0,2013-10-26 07:53:00
1:53 AM,48.9,48.0,97,30.35,10.0,Calm,Calm,-,N/A,,Overcast,0,2013-10-26 08:53:00
2:53 AM,50.0,46.9,89,30.35,10.0,Calm,Calm,-,N/A,,Overcast,0,2013-10-26 09:53:00
3:53 AM,50.0,46.9,89,30.35,10.0,Calm,Calm,-,N/A,,Overcast,0,2013-10-26 10:53:00
4:16 AM,48.2,46.4,93,30.34,9.0,Calm,Calm,-,N/A,,Mostly Cloudy,0,2013-10-26 11:16:00
4:53 AM,48.0,46.9,96,30.35,9.0,Calm,Calm,-,N/A,,Overcast,0,2013-10-26 11:53:00
5:23 AM,48.2,46.4,93,30.34,8.0,North,4.6,-,N/A,,Overcast,360,2013-10-26 12:23:00
5:51 AM,50.0,48.2,94,30.35,6.0,Calm,Calm,-,N/A,,Overcast,0,2013-10-26 12:51:00
5:53 AM,50.0,48.0,93,30.35,6.0,Calm,Calm,-,N/A,,Overcast,0,2013-10-26 12:53:00
6:28 AM,46.4,44.6,93,30.34,4.0,WNW,3.5,-,N/A,,Scattered Clouds,290,2013-10-26 13:28:00
6:53 AM,48.0,46.9,96,30.34,5.0,Calm,Calm,-,N/A,,Overcast,0,2013-10-26 13:53:00
7:40 AM,46.4,46.4,100,30.34,4.0,Calm,Calm,-,N/A,,Overcast,0,2013-10-26 14:40:00
7:53 AM,48.0,46.9,96,30.35,4.0,Calm,Calm,-,N/A,,Overcast,0,2013-10-26 14:53:00
8:10 AM,46.4,46.4,100,30.34,2.0,Calm,Calm,-,N/A,,Mostly Cloudy,0,2013-10-26 15:10:00
8:17 AM,46.4,44.6,93,30.35,1.8,Calm,Calm,-,N/A,,Scattered Clouds,0,2013-10-26 15:17:00
8:21 AM,46.4,44.6,93,30.35,2.0,Calm,Calm,-,N/A,,Mostly Cloudy,0,2013-10-26 15:21:00
8:41 AM,48.2,48.2,100,30.35,4.0,Calm,Calm,-,N/A,,Mostly Cloudy,0,2013-10-26 15:41:00
8:51 AM,50.0,48.2,94,30.35,5.0,Variable,3.5,-,N/A,,Mostly Cloudy,0,2013-10-26 15:51:00
8:53 AM,50.0,48.0,93,30.35,5.0,Calm,Calm,-,N/A,,Mostly Cloudy,0,2013-10-26 15:53:00
9:53 AM,51.1,48.0,89,30.36,6.0,Calm,Calm,-,N/A,,Overcast,0,2013-10-26 16:53:00
10:35 AM,51.8,48.2,88,30.36,8.0,North,3.5,-,N/A,,Overcast,360,2013-10-26 17:35:00
10:53 AM,51.1,46.9,86,30.36,9.0,NNW,4.6,-,N/A,,Overcast,340,2013-10-26 17:53:00
11:53 AM,52.0,46.9,83,30.36,10.0,North,6.9,-,N/A,,Overcast,360,2013-10-26 18:53:00
12:28 PM,51.8,46.4,82,30.35,10.0,North,8.1,-,N/A,,Overcast,360,2013-10-26 19:28:00
12:53 PM,52.0,46.9,83,30.35,10.0,NNW,3.5,-,N/A,,Overcast,340,2013-10-26 19:53:00
1:30 PM,51.8,46.4,82,30.33,10.0,Variable,3.5,-,N/A,,Overcast,0,2013-10-26 20:30:00
1:53 PM,53.1,46.0,77,30.33,10.0,North,6.9,-,N/A,,Overcast,360,2013-10-26 20:53:00
2:44 PM,53.6,46.4,77,30.30,10.0,North,5.8,-,N/A,,Partly Cloudy,10,2013-10-26 21:44:00
2:53 PM,55.0,45.0,69,30.30,10.0,North,5.8,-,N/A,,Partly Cloudy,10,2013-10-26 21:53:00
3:53 PM,54.0,45.0,72,30.30,10.0,Calm,Calm,-,N/A,,Clear,0,2013-10-26 22:53:00
4:26 PM,51.8,46.4,82,30.29,10.0,North,6.9,-,N/A,,Mostly Cloudy,360,2013-10-26 23:26:00
4:40 PM,51.8,44.6,76,30.28,10.0,North,5.8,-,N/A,,Scattered Clouds,350,2013-10-26 23:40:00
4:53 PM,51.1,46.0,83,30.28,10.0,North,8.1,-,N/A,,Partly Cloudy,360,2013-10-26 23:53:00
5:14 PM,51.8,46.4,82,30.27,10.0,North,3.5,-,N/A,,Mostly Cloudy,360,2013-10-27 00:14:00
5:53 PM,51.1,46.0,83,30.26,10.0,Calm,Calm,-,N/A,,Overcast,0,2013-10-27 00:53:00
6:53 PM,50.0,46.0,86,30.25,10.0,Calm,Calm,-,N/A,,Overcast,0,2013-10-27 01:53:00
7:53 PM,50.0,46.0,86,30.25,10.0,Calm,Calm,-,N/A,,Overcast,0,2013-10-27 02:53:00
8:53 PM,50.0,46.0,86,30.24,10.0,ENE,3.5,-,N/A,,Overcast,60,2013-10-27 03:53:00
9:53 PM,50.0,46.0,86,30.24,10.0,Calm,Calm,-,N/A,,Overcast,0,2013-10-27 04:53:00
10:53 PM,48.9,46.0,90,30.22,10.0,Calm,Calm,-,N/A,,Overcast,0,2013-10-27 05:53:00
11:53 PM,48.9,46.0,90,30.20,10.0,Calm,Calm,-,N/A,,Overcast,0,2013-10-27 06:53:00